Darstellungsparameter: Aktuell verwendete Einstellungen:
Skalierung der Graphiken ... ?
xyx+y,   Skalierungsfaktor:      Skalierung: Modus: x, Faktor: 1
Darstellungszeitraum ... ?
Vom - - bis: - -   Zeitraum: 18.01.2019 - 18.01.2019
Min/Max/Avg-Anzeige ... ?
Zeige MMA aktuell
Zeige MMA Monat
Zeige MMA alles
Zeige --A aktuell
Zeige --A Monat
Zeige --A alles
Keine MMA-Anzeige
MMA:
Keine MMA-Graphiken
MMA-Basis: 18.01.2019 - 18.01.2019
Quicknavigation für Darstellung... ?
Tage:      1T, 2T, 3T, 5T -1T -2T -3T -5T +1T +2T +3T +5T
Wochen: 1W, 2W, 3W -1W -2W -3W +1W +2W +3W
Monate: 1M, 3M, 6M -1M -3M -6M +1M +3M +6M
Jahre:    1J, 3J, 5J, 10J -1J -3J -5J -10J +1J +3J +5J +10J
Nutze für die Darstellung ... ?
Originaldaten oder Mittelwerte auf ...
Stundenbasis Tagesbasis Wochenbasis
Monatsbasis Jahresbasis      Datenbasis: Original-Daten
Darstellen als:
Statistik (Auto) Statistik J:M      Darstellung:
Zur Graphik,    zurück zur Übersicht aller Sensoren.
 
Tabellarische Datenbersicht: ?
 
Sensor: Nr:Datum:Temp:Feuchte:Taupunkt:
Aussen-T/F 1 18-01-2019 00:00:00 2.8 C 87 % 0.86 C
2 18-01-2019 00:05:00 2.8 C 87 % 0.86 C
3 18-01-2019 00:10:00 2.7 C 88 % 0.92 C
4 18-01-2019 00:15:00 2.7 C 88 % 0.92 C
5 18-01-2019 00:20:00 2.6 C 88 % 0.82 C
6 18-01-2019 00:25:00 2.6 C 87 % 0.66 C
7 18-01-2019 00:30:00 2.5 C 87 % 0.56 C
8 18-01-2019 00:35:00 2.4 C 87 % 0.46 C
9 18-01-2019 00:40:00 2.3 C 88 % 0.52 C
10 18-01-2019 00:45:00 2.2 C 88 % 0.42 C
11 18-01-2019 00:50:00 2.2 C 89 % 0.58 C
12 18-01-2019 00:55:00 2.1 C 89 % 0.48 C
13 18-01-2019 01:00:00 2.1 C 89 % 0.48 C
14 18-01-2019 01:05:00 2.1 C 88 % 0.33 C
15 18-01-2019 01:10:00 2.1 C 89 % 0.48 C
16 18-01-2019 01:15:00 2.1 C 88 % 0.33 C
17 18-01-2019 01:20:00 2.1 C 88 % 0.33 C
18 18-01-2019 01:25:00 2.1 C 89 % 0.48 C
19 18-01-2019 01:30:00 2.1 C 89 % 0.48 C
20 18-01-2019 01:35:00 2.1 C 88 % 0.33 C
21 18-01-2019 01:40:00 2.1 C 89 % 0.48 C
22 18-01-2019 01:45:00 2.2 C 88 % 0.42 C
23 18-01-2019 01:50:00 2.2 C 88 % 0.42 C
24 18-01-2019 01:55:00 2.2 C 88 % 0.42 C
25 18-01-2019 02:00:00 2.2 C 88 % 0.42 C
Sensor: Nr:Datum:Temp:Feuchte:Taupunkt:
Aussen-T/F 26 18-01-2019 02:05:00 2.2 C 88 % 0.42 C
27 18-01-2019 02:10:00 2.2 C 87 % 0.27 C
28 18-01-2019 02:15:00 2.2 C 87 % 0.27 C
29 18-01-2019 02:20:00 2.2 C 87 % 0.27 C
30 18-01-2019 02:25:00 2.2 C 88 % 0.42 C
31 18-01-2019 02:30:00 2.2 C 88 % 0.42 C
32 18-01-2019 02:35:00 2.2 C 88 % 0.42 C
33 18-01-2019 02:40:00 2.2 C 88 % 0.42 C
34 18-01-2019 02:45:00 2.2 C 88 % 0.42 C
35 18-01-2019 02:50:00 2.3 C 88 % 0.52 C
36 18-01-2019 02:55:00 2.3 C 88 % 0.52 C
37 18-01-2019 03:00:00 2.3 C 88 % 0.52 C
38 18-01-2019 03:05:00 2.3 C 88 % 0.52 C
39 18-01-2019 03:10:00 2.2 C 89 % 0.58 C
40 18-01-2019 03:15:00 2.1 C 90 % 0.64 C
41 18-01-2019 03:20:00 1.9 C 90 % 0.44 C
42 18-01-2019 03:25:00 1.9 C 91 % 0.59 C
43 18-01-2019 03:30:00 1.9 C 91 % 0.59 C
44 18-01-2019 03:35:00 1.8 C 91 % 0.49 C
45 18-01-2019 03:40:00 1.8 C 92 % 0.64 C
46 18-01-2019 03:45:00 1.8 C 92 % 0.64 C
47 18-01-2019 03:50:00 1.8 C 92 % 0.64 C
48 18-01-2019 03:55:00 1.7 C 92 % 0.54 C
49 18-01-2019 04:00:00 1.7 C 93 % 0.69 C
50 18-01-2019 04:05:00 1.7 C 93 % 0.69 C
Sensor: Nr:Datum:Temp:Feuchte:Taupunkt:
Aussen-T/F 51 18-01-2019 04:10:00 1.7 C 93 % 0.69 C
52 18-01-2019 04:15:00 1.7 C 93 % 0.69 C
53 18-01-2019 04:20:00 1.7 C 93 % 0.69 C
54 18-01-2019 04:25:00 1.7 C 93 % 0.69 C
55 18-01-2019 04:30:00 1.7 C 93 % 0.69 C
56 18-01-2019 04:35:00 1.7 C 93 % 0.69 C
57 18-01-2019 04:40:00 1.7 C 93 % 0.69 C
58 18-01-2019 04:45:00 1.8 C 93 % 0.79 C
59 18-01-2019 04:50:00 1.8 C 93 % 0.79 C
60 18-01-2019 04:55:00 1.8 C 92 % 0.64 C
61 18-01-2019 05:00:00 1.9 C 92 % 0.74 C
62 18-01-2019 05:05:00 1.9 C 92 % 0.74 C
63 18-01-2019 05:10:00 2 C 92 % 0.84 C
64 18-01-2019 05:15:00 2 C 92 % 0.84 C
65 18-01-2019 05:20:00 2.1 C 91 % 0.79 C
66 18-01-2019 05:25:00 2.1 C 91 % 0.79 C
67 18-01-2019 05:30:00 2 C 91 % 0.69 C
68 18-01-2019 05:35:00 1.9 C 91 % 0.59 C
69 18-01-2019 05:40:00 1.9 C 92 % 0.74 C
70 18-01-2019 05:45:00 1.9 C 92 % 0.74 C
71 18-01-2019 05:50:00 1.9 C 92 % 0.74 C
72 18-01-2019 05:55:00 1.9 C 92 % 0.74 C
73 18-01-2019 06:00:00 1.8 C 92 % 0.64 C
74 18-01-2019 06:05:00 1.7 C 92 % 0.54 C
75 18-01-2019 06:10:00 1.7 C 93 % 0.69 C
Sensor: Nr:Datum:Temp:Feuchte:Taupunkt:
Aussen-T/F 76 18-01-2019 06:15:00 1.6 C 93 % 0.59 C
77 18-01-2019 06:20:00 1.6 C 93 % 0.59 C
78 18-01-2019 06:25:00 1.6 C 93 % 0.59 C
79 18-01-2019 06:30:00 1.5 C 93 % 0.49 C
80 18-01-2019 06:35:00 1.5 C 93 % 0.49 C
81 18-01-2019 06:40:00 1.5 C 94 % 0.64 C
82 18-01-2019 06:45:00 1.5 C 93 % 0.49 C
83 18-01-2019 06:50:00 1.4 C 94 % 0.54 C
84 18-01-2019 06:55:00 1.4 C 94 % 0.54 C
85 18-01-2019 07:00:00 1.3 C 94 % 0.44 C
86 18-01-2019 07:05:00 1.2 C 93 % 0.2 C
87 18-01-2019 07:10:00 1.1 C 93 % 0.1 C
88 18-01-2019 07:15:00 1.1 C 93 % 0.1 C
89 18-01-2019 07:20:00 1 C 94 % 0.15 C
90 18-01-2019 07:25:00 0.9 C 94 % 0.05 C
91 18-01-2019 07:30:00 0.8 C 94 % -0.05 C
92 18-01-2019 07:35:00 0.8 C 94 % -0.05 C
93 18-01-2019 07:40:00 0.8 C 94 % -0.05 C
94 18-01-2019 07:45:00 0.8 C 94 % -0.05 C
95 18-01-2019 07:50:00 0.8 C 94 % -0.05 C
96 18-01-2019 07:55:00 0.7 C 94 % -0.15 C
97 18-01-2019 08:00:00 0.6 C 94 % -0.25 C
98 18-01-2019 08:05:00 0.5 C 94 % -0.35 C
99 18-01-2019 08:10:00 0.4 C 94 % -0.45 C
100 18-01-2019 08:15:00 0.4 C 94 % -0.45 C
Sensor: Nr:Datum:Temp:Feuchte:Taupunkt:
Aussen-T/F 101 18-01-2019 08:20:00 0.3 C 94 % -0.55 C
102 18-01-2019 08:25:00 0.3 C 94 % -0.55 C
103 18-01-2019 08:30:00 0.2 C 94 % -0.65 C
104 18-01-2019 08:35:00 0.2 C 94 % -0.65 C
105 18-01-2019 08:40:00 0.2 C 94 % -0.65 C
106 18-01-2019 08:45:00 0.1 C 94 % -0.75 C
107 18-01-2019 08:50:00 0.1 C 94 % -0.75 C
108 18-01-2019 08:55:00 0 C 94 % -0.85 C
109 18-01-2019 09:00:00 0 C 94 % -0.85 C
110 18-01-2019 09:05:00 0 C 95 % -0.7 C
111 18-01-2019 09:10:00 0.1 C 95 % -0.6 C
112 18-01-2019 09:15:00 0.1 C 95 % -0.6 C
113 18-01-2019 09:20:00 0.1 C 95 % -0.6 C
114 18-01-2019 09:25:00 0.1 C 95 % -0.6 C
115 18-01-2019 09:30:00 0.1 C 95 % -0.6 C
116 18-01-2019 09:35:00 0 C 95 % -0.7 C
117 18-01-2019 09:40:00 -0.1 C 95 % -0.8 C
118 18-01-2019 09:45:00 -0.1 C 95 % -0.8 C
119 18-01-2019 09:50:00 -0.1 C 95 % -0.8 C
120 18-01-2019 09:55:00 -0.1 C 95 % -0.8 C
121 18-01-2019 10:00:00 -0.1 C 95 % -0.8 C
122 18-01-2019 10:05:00 -0.1 C 95 % -0.8 C
123 18-01-2019 10:10:00 -0.1 C 95 % -0.8 C
124 18-01-2019 10:15:00 -0.2 C 95 % -0.9 C
125 18-01-2019 10:20:00 -0.1 C 95 % -0.8 C
Sensor: Nr:Datum:Temp:Feuchte:Taupunkt:
Aussen-T/F 126 18-01-2019 10:25:00 0 C 95 % -0.7 C
127 18-01-2019 10:30:00 0.1 C 95 % -0.6 C
128 18-01-2019 10:35:00 0.1 C 95 % -0.6 C
129 18-01-2019 10:40:00 0.2 C 95 % -0.5 C
130 18-01-2019 10:45:00 0.3 C 96 % -0.26 C
131 18-01-2019 10:50:00 0.4 C 95 % -0.31 C
132 18-01-2019 10:55:00 0.5 C 96 % -0.06 C
133 18-01-2019 11:00:00 0.6 C 96 % 0.04 C
134 18-01-2019 11:05:00 0.6 C 96 % 0.04 C
135 18-01-2019 11:10:00 0.7 C 96 % 0.14 C
136 18-01-2019 11:15:00 0.7 C 96 % 0.14 C
137 18-01-2019 11:20:00 0.7 C 96 % 0.14 C
138 18-01-2019 11:25:00 0.8 C 95 % 0.09 C
139 18-01-2019 11:30:00 0.9 C 96 % 0.34 C
140 18-01-2019 11:35:00 1 C 96 % 0.44 C
141 18-01-2019 11:40:00 1.1 C 96 % 0.54 C
142 18-01-2019 11:45:00 1.2 C 96 % 0.63 C
143 18-01-2019 11:50:00 1.3 C 96 % 0.73 C
144 18-01-2019 11:55:00 1.4 C 96 % 0.83 C
145 18-01-2019 12:00:00 1.4 C 95 % 0.69 C
146 18-01-2019 12:05:00 1.5 C 95 % 0.79 C
147 18-01-2019 12:10:00 1.5 C 95 % 0.79 C
148 18-01-2019 12:15:00 1.6 C 95 % 0.89 C
149 18-01-2019 12:20:00 1.6 C 95 % 0.89 C
150 18-01-2019 12:25:00 1.6 C 95 % 0.89 C
Sensor: Nr:Datum:Temp:Feuchte:Taupunkt:
Aussen-T/F 151 18-01-2019 12:30:00 1.7 C 95 % 0.99 C
152 18-01-2019 12:35:00 1.7 C 95 % 0.99 C
153 18-01-2019 12:40:00 1.6 C 94 % 0.74 C
154 18-01-2019 12:45:00 1.6 C 94 % 0.74 C
155 18-01-2019 12:50:00 1.6 C 94 % 0.74 C
156 18-01-2019 12:55:00 1.6 C 94 % 0.74 C
157 18-01-2019 13:00:00 1.6 C 94 % 0.74 C
158 18-01-2019 13:05:00 1.6 C 93 % 0.59 C
159 18-01-2019 13:10:00 1.6 C 93 % 0.59 C
160 18-01-2019 13:15:00 1.6 C 93 % 0.59 C
161 18-01-2019 13:20:00 1.7 C 92 % 0.54 C
162 18-01-2019 13:25:00 1.8 C 90 % 0.34 C
163 18-01-2019 13:30:00 1.9 C 90 % 0.44 C
164 18-01-2019 13:35:00 1.9 C 89 % 0.28 C
165 18-01-2019 13:40:00 2 C 89 % 0.38 C
166 18-01-2019 13:45:00 2.1 C 89 % 0.48 C
167 18-01-2019 13:50:00 2.2 C 87 % 0.27 C
168 18-01-2019 13:55:00 2.2 C 87 % 0.27 C
169 18-01-2019 14:00:00 2.3 C 87 % 0.36 C
170 18-01-2019 14:05:00 2.3 C 87 % 0.36 C
171 18-01-2019 14:10:00 2.2 C 88 % 0.42 C
172 18-01-2019 14:15:00 2.2 C 88 % 0.42 C
173 18-01-2019 14:20:00 2.1 C 88 % 0.33 C
174 18-01-2019 14:25:00 2.1 C 88 % 0.33 C
175 18-01-2019 14:30:00 1.9 C 89 % 0.28 C
Sensor: Nr:Datum:Temp:Feuchte:Taupunkt:
Aussen-T/F 176 18-01-2019 14:35:00 1.8 C 89 % 0.19 C
177 18-01-2019 14:40:00 1.7 C 89 % 0.09 C
178 18-01-2019 14:45:00 1.7 C 89 % 0.09 C
179 18-01-2019 14:50:00 1.6 C 89 % -0.01 C
180 18-01-2019 14:55:00 1.4 C 90 % -0.06 C
181 18-01-2019 15:00:00 1.3 C 90 % -0.15 C
182 18-01-2019 15:05:00 1.3 C 90 % -0.15 C
183 18-01-2019 15:10:00 1.2 C 90 % -0.25 C
184 18-01-2019 15:15:00 1.2 C 90 % -0.25 C
185 18-01-2019 15:20:00 1.2 C 90 % -0.25 C
186 18-01-2019 15:25:00 1.1 C 90 % -0.35 C
187 18-01-2019 15:30:00 1.1 C 90 % -0.35 C
188 18-01-2019 15:35:00 1.1 C 90 % -0.35 C
189 18-01-2019 15:40:00 1.1 C 90 % -0.35 C
190 18-01-2019 15:45:00 1 C 91 % -0.3 C
191 18-01-2019 15:50:00 1 C 91 % -0.3 C
192 18-01-2019 15:55:00 1 C 91 % -0.3 C
193 18-01-2019 16:00:00 1 C 91 % -0.3 C
194 18-01-2019 16:05:00 1 C 91 % -0.3 C
195 18-01-2019 16:10:00 0.9 C 91 % -0.4 C
196 18-01-2019 16:15:00 0.9 C 90 % -0.55 C
197 18-01-2019 16:20:00 0.9 C 90 % -0.55 C
198 18-01-2019 16:25:00 0.9 C 90 % -0.55 C
199 18-01-2019 16:30:00 0.8 C 90 % -0.65 C
200 18-01-2019 16:35:00 0.8 C 90 % -0.65 C
Sensor: Nr:Datum:Temp:Feuchte:Taupunkt:
Aussen-T/F 201 18-01-2019 16:40:00 0.8 C 90 % -0.65 C
202 18-01-2019 16:45:00 0.7 C 90 % -0.75 C
203 18-01-2019 16:50:00 0.7 C 90 % -0.75 C
204 18-01-2019 16:55:00 0.6 C 90 % -0.85 C
205 18-01-2019 17:00:00 0.5 C 90 % -0.95 C
206 18-01-2019 17:05:00 0.4 C 90 % -1.04 C
207 18-01-2019 17:10:00 0.3 C 90 % -1.14 C
208 18-01-2019 17:15:00 0.3 C 90 % -1.14 C
209 18-01-2019 17:20:00 0.3 C 90 % -1.14 C
210 18-01-2019 17:25:00 0.2 C 90 % -1.24 C
211 18-01-2019 17:30:00 0.2 C 90 % -1.24 C
212 18-01-2019 17:35:00 0.2 C 90 % -1.24 C
213 18-01-2019 17:40:00 0.1 C 90 % -1.34 C
214 18-01-2019 17:45:00 0.1 C 90 % -1.34 C
215 18-01-2019 17:50:00 0.1 C 90 % -1.34 C
216 18-01-2019 17:55:00 0 C 91 % -1.29 C
217 18-01-2019 18:00:00 -0.1 C 90 % -1.54 C
218 18-01-2019 18:05:00 -0.1 C 91 % -1.39 C
219 18-01-2019 18:10:00 -0.1 C 90 % -1.54 C
220 18-01-2019 18:15:00 -0.2 C 90 % -1.64 C
221 18-01-2019 18:20:00 -0.2 C 91 % -1.49 C
222 18-01-2019 18:25:00 -0.2 C 91 % -1.49 C
223 18-01-2019 18:30:00 -0.3 C 91 % -1.59 C
224 18-01-2019 18:35:00 -0.3 C 91 % -1.59 C
225 18-01-2019 18:40:00 -0.3 C 91 % -1.59 C
Sensor: Nr:Datum:Temp:Feuchte:Taupunkt:
Aussen-T/F 226 18-01-2019 18:45:00 -0.4 C 91 % -1.69 C
227 18-01-2019 18:50:00 -0.4 C 91 % -1.69 C
228 18-01-2019 18:55:00 -0.4 C 91 % -1.69 C
229 18-01-2019 19:00:00 -0.5 C 92 % -1.64 C
230 18-01-2019 19:05:00 -0.6 C 92 % -1.74 C
231 18-01-2019 19:10:00 -0.6 C 92 % -1.74 C
232 18-01-2019 19:15:00 -0.6 C 92 % -1.74 C
233 18-01-2019 19:20:00 -0.7 C 92 % -1.83 C
234 18-01-2019 19:25:00 -0.7 C 92 % -1.83 C
235 18-01-2019 19:30:00 -0.7 C 92 % -1.83 C
236 18-01-2019 19:35:00 -0.7 C 92 % -1.83 C
237 18-01-2019 19:40:00 -0.7 C 92 % -1.83 C
238 18-01-2019 19:45:00 -0.7 C 92 % -1.83 C
239 18-01-2019 19:50:00 -0.7 C 92 % -1.83 C
240 18-01-2019 19:55:00 -0.7 C 92 % -1.83 C
241 18-01-2019 20:00:00 -0.8 C 93 % -1.79 C
242 18-01-2019 20:05:00 -0.8 C 93 % -1.79 C
243 18-01-2019 20:10:00 -0.8 C 93 % -1.79 C
244 18-01-2019 20:15:00 -0.8 C 93 % -1.79 C
245 18-01-2019 20:20:00 -0.8 C 92 % -1.93 C
246 18-01-2019 20:25:00 -0.8 C 93 % -1.79 C
247 18-01-2019 20:30:00 -0.8 C 93 % -1.79 C
248 18-01-2019 20:35:00 -0.8 C 93 % -1.79 C
249 18-01-2019 20:40:00 -0.9 C 93 % -1.89 C
250 18-01-2019 20:45:00 -0.9 C 93 % -1.89 C
Sensor: Nr:Datum:Temp:Feuchte:Taupunkt:
Aussen-T/F 251 18-01-2019 20:50:00 -1 C 93 % -1.99 C
252 18-01-2019 20:55:00 -1 C 93 % -1.99 C
253 18-01-2019 21:00:00 -1 C 93 % -1.99 C
254 18-01-2019 21:05:00 -1 C 93 % -1.99 C
255 18-01-2019 21:10:00 -1 C 93 % -1.99 C
256 18-01-2019 21:15:00 -1.1 C 93 % -2.09 C
257 18-01-2019 21:20:00 -1.1 C 93 % -2.09 C
258 18-01-2019 21:25:00 -1.1 C 93 % -2.09 C
259 18-01-2019 21:30:00 -1.1 C 93 % -2.09 C
260 18-01-2019 21:35:00 -1 C 93 % -1.99 C
261 18-01-2019 21:40:00 -0.9 C 93 % -1.89 C
262 18-01-2019 21:45:00 -0.9 C 93 % -1.89 C
263 18-01-2019 21:50:00 -0.9 C 93 % -1.89 C
264 18-01-2019 21:55:00 -0.9 C 93 % -1.89 C
265 18-01-2019 22:00:00 -0.9 C 93 % -1.89 C
266 18-01-2019 22:05:00 -0.9 C 93 % -1.89 C
267 18-01-2019 22:10:00 -1 C 93 % -1.99 C
268 18-01-2019 22:15:00 -1 C 93 % -1.99 C
269 18-01-2019 22:20:00 -1.1 C 93 % -2.09 C
270 18-01-2019 22:25:00 -1.1 C 93 % -2.09 C
271 18-01-2019 22:30:00 -1.1 C 93 % -2.09 C
272 18-01-2019 22:35:00 -1.1 C 93 % -2.09 C
273 18-01-2019 22:40:00 -1.1 C 93 % -2.09 C
274 18-01-2019 22:45:00 -1.1 C 93 % -2.09 C
275 18-01-2019 22:50:00 -1.1 C 93 % -2.09 C
Sensor: Nr:Datum:Temp:Feuchte:Taupunkt:
Aussen-T/F 276 18-01-2019 22:55:00 -1.1 C 93 % -2.09 C
277 18-01-2019 23:00:00 -1.2 C 93 % -2.18 C
278 18-01-2019 23:05:00 -1.2 C 93 % -2.18 C
279 18-01-2019 23:10:00 -1.2 C 93 % -2.18 C
280 18-01-2019 23:15:00 -1.3 C 93 % -2.28 C
281 18-01-2019 23:20:00 -1.3 C 93 % -2.28 C
282 18-01-2019 23:25:00 -1.4 C 93 % -2.38 C
283 18-01-2019 23:30:00 -1.4 C 93 % -2.38 C
284 18-01-2019 23:35:00 -1.5 C 93 % -2.48 C
285 18-01-2019 23:40:00 -1.5 C 93 % -2.48 C
286 18-01-2019 23:45:00 -1.6 C 93 % -2.58 C
287 18-01-2019 23:50:00 -1.6 C 93 % -2.58 C
288 18-01-2019 23:55:00 -1.7 C 93 % -2.68 C

Legende:
   Min
   Max


Maximal/Minimal-Werte vom 18.01.2019 - 18.01.2019

Sensor Min Max Avg
Temp
(Aussen-T/F)
-1.7 °C
18-01-2019  23:55:00
2.8 °C
18-01-2019  00:00:00
0.78 °C
Feuchte
(Aussen-T/F)
87 %
18-01-2019  00:00:00
96 %
18-01-2019  10:45:00
91.86 %
Taupunkt
(Aussen-T/F)
-2.68 C
18-01-2019  23:55:00
0.99 C
18-01-2019  12:30:00
-0.4 C

Die Daten stammen von einer Davis Vantage Pro 2 Wetter-Station und werden unter Linux mit der Software wview2wettercgi und aufbereitet. Alle Angaben erfolgen ohne Gewähr für ihre Vollständigkeit oder Richtigkeit.
Kontakt: Rainer Krienke krienke@uni-koblenz.de . Meine Webseiten an der Uni Koblenz oder privat.
Version: $Revision: 0.78 $